K4MDI Weather Reports


Display with metric or nautical units.
time (UTC)temp
F
wind
direction
speed
MPH
gust
MPH
rain 1hr
in
rain 24hr
in
rain mn
in
humidity
%
barometer
mb
20260508224520 67 0.0 1.0 0.00 0.00 0.00 71 1013.2
20260508223520 68 0.0 0.0 0.00 0.00 0.00 70 1013.2
20260508222520 68 0.0 0.0 0.00 0.00 0.00 67 1013.3
20260508221520 68 0.0 0.0 0.00 0.00 0.00 69 1013.2
20260508220520 69 0.0 0.0 0.00 0.00 0.00 66 1013.2
20260508215520 69 0.0 1.0 0.00 0.00 0.00 63 1013.1
20260508214520 69 0.0 0.0 0.00 0.00 0.00 61 1013.1
20260508213520 69 0.0 3.0 0.00 0.00 0.00 61 1013.3
20260508212520 69 0.0 0.0 0.00 0.00 0.00 60 1013.1
20260508211520 70 0.0 2.0 0.00 0.00 0.00 62 1013.2
20260508210520 70 0.0 2.0 0.00 0.00 0.00 61
20260508205520 70 0.0 3.0 0.00 0.00 0.00 57
20260508204520 71 0.0 2.0 0.00 0.00 0.00 58
20260508203519 71 0.0 1.0 0.00 0.00 0.00 57 1013.5
20260508202519 71 0.0 1.0 0.00 0.00 0.00 56 1013.7
20260508201520 71 113 1.0 3.0 0.00 0.00 0.00 54 1013.8
20260508200519 72 0.0 1.0 0.00 0.00 0.00 57 1013.9
20260508195520 72 113 1.0 4.0 0.00 0.00 0.00 53 1013.9
20260508194520 73 0.0 1.0 0.00 0.00 0.00 58 1014.1
20260508193520 72 293 1.0 3.0 0.00 0.00 0.00 54 1014.4
20260508192540 73 0.0 1.0 0.00 0.00 0.00 50 1014.6
20260508191540 73 0.0 2.0 0.00 0.00 0.00 52 1014.7
20260508190520 73 0.0 1.0 0.00 0.00 0.00 49 1014.8
20260508185520 72 0.0 4.0 0.00 0.00 0.00 50 1014.9
20260508184539 72 0.0 2.0 0.00 0.00 0.00 47 1015.0
20260508183520 73 113 1.0 3.0 0.00 0.00 0.00 53 1015.3
20260508182520 71 113 1.0 3.0 0.00 0.00 0.00 50 1015.4
20260508181559 71 0.0 1.0 0.00 0.00 0.00 51 1015.6
20260508180600 71 0.0 2.0 0.00 0.00 0.00 53 1015.6
20260508175519 72 0.0 1.0 0.00 0.00 0.00 51 1015.8
20260508174520 71 0.0 1.0 0.00 0.00 0.00 52 1015.9
20260508173519 71 113 1.0 5.0 0.00 0.00 0.00 51 1016.1
20260508172519 71 90 1.0 4.0 0.00 0.00 0.00 53 1016.2
20260508171520 70 90 1.0 4.0 0.00 0.00 0.00 52 1016.2
20260508170519 71 90 1.0 3.0 0.00 0.00 0.00 57 1016.5
20260508165519 70 90 1.0 3.0 0.00 0.00 0.00 55 1016.6
20260508164540 70 68 1.0 3.0 0.00 0.00 0.00 52 1016.7
20260508163519 70 0.0 2.0 0.00 0.00 0.00 51 1016.8
20260508162519 70 113 1.0 4.0 0.00 0.00 0.00 55 1017.0
20260508161519 70 113 1.0 4.0 0.00 0.00 0.00 51 1017.2
20260508160539 69 0.0 2.0 0.00 0.00 0.00 54 1017.2
20260508155519 70 0.0 2.0 0.00 0.00 0.00 55 1017.2
20260508154519 69 113 1.0 3.0 0.00 0.00 0.00 53 1017.3
20260508153519 68 90 1.0 3.0 0.00 0.00 0.00 55 1017.6
20260508152519 67 315 2.0 6.0 0.00 0.00 0.00 59 1017.7
20260508151519 67 315 1.0 6.0 0.00 0.00 0.00 58 1017.8
20260508150519 67 45 1.0 3.0 0.00 0.00 0.00 58 1017.8
20260508145519 67 0.0 1.0 0.00 0.00 0.00 59 1017.6
20260508144519 66 0.0 3.0 0.00 0.00 0.00 62 1017.6
20260508143519 66 315 1.0 3.0 0.00 0.00 0.00 60 1017.6
20260508142519 65 0.0 1.0 0.00 0.00 0.00 62 1017.6
20260508141519 64 0.0 2.0 0.00 0.00 0.00 68 1017.6
20260508140539 63 270 1.0 3.0 0.00 0.00 0.00 67 1017.7
20260508135519 62 0.0 1.0 0.00 0.00 0.00 73 1017.9
20260508134519 61 0.0 1.0 0.00 0.00 0.00 84 1018.0
20260508133519 59 0.0 1.0 0.00 0.00 0.00 89 1018.0
20260508132519 58 0.0 1.0 0.00 0.00 0.00 93 1017.9
20260508131539 56 0.0 0.0 0.00 0.00 0.00 94 1018.0
20260508130519 55 0.0 1.0 0.00 0.00 0.00 97 1017.9
20260508125519 54 0.0 1.0 0.00 0.00 0.00 98 1017.8
20260508124519 53 0.0 0.0 0.00 0.00 0.00 98 1017.6
20260508123539 52 0.0 0.0 0.00 0.00 0.00 97 1017.3
20260508122519 51 0.0 0.0 0.00 0.00 0.00 97 1017.2
20260508121519 50 0.0 0.0 0.00 0.00 0.00 97 1016.9
20260508120519 49 0.0 0.0 0.00 0.00 0.00 97 1017.0
20260508115519 49 0.0 0.0 0.00 0.00 0.00 97 1016.7
20260508114539 48 0.0 0.0 0.00 0.00 0.00 97 1016.7
20260508113519 48 0.0 0.0 0.00 0.00 0.00 97 1016.6
20260508112519 47 0.0 0.0 0.00 0.00 0.00 97 1016.3
20260508111519 47 0.0 0.0 0.00 0.00 0.00 97 1016.1
20260508110518 47 0.0 0.0 0.00 0.00 0.00 97 1015.8
20260508105559 46 0.0 0.0 0.00 0.00 0.00 97 1015.6
20260508104518 46 0.0 0.0 0.00 0.00 0.00 97 1015.4
20260508103539 46 0.0 0.0 0.00 0.00 0.00 97 1015.3
20260508102538 47 0.0 0.0 0.00 0.00 0.00 97 1015.1
20260508101519 47 0.0 0.0 0.00 0.00 0.00 97 1015.1
20260508100519 47 0.0 0.0 0.00 0.00 0.00 96 1014.9
20260508095539 47 0.0 0.0 0.00 0.00 0.00 96 1014.9
20260508094539 47 0.0 0.0 0.00 0.00 0.00 96 1014.7
20260508093539 47 0.0 0.0 0.00 0.00 0.00 96 1014.6
20260508092519 47 0.0 0.0 0.00 0.00 0.00 96 1014.4
20260508091539 47 0.0 0.0 0.00 0.82 0.00 96 1014.5
20260508091145 0 0.0 0.0 0.00 0.82 0.00
20260508090038 0 0.0 0.0 0.00 0.82 0.00
20260508085023 0 0.0 0.0 0.00 0.82 0.00
20260508084651 0 0.0 0.0 0.00 0.82 0.00 1013.7
20260508084525 0 0.0 0.0 0.00 0.82 0.00
20260508083539 0 0.0 0.0 0.00 0.82 0.00
20260508083018 0 0.0 0.0 0.00 0.82 0.00
20260508082015 48 0.0 0.0 0.00 0.82 0.00 54 1014.1
20260508081019 48 0.0 0.0 0.00 0.00 0.00 54 1014.2
20260508080018 48 0.0 0.0 0.00 0.00 0.00 54 1014.1
20260508075018 48 0.0 0.0 0.00 0.00 0.00 55 1014.0
20260508074039 49 0.0 0.0 0.00 0.00 0.00 55 1014.1
20260508073058 49 0.0 0.0 0.00 0.00 0.00 55 1014.1
20260508072018 49 0.0 0.0 0.00 0.00 0.00 55 1014.2
20260508071018 49 0.0 0.0 0.00 0.00 0.00 55 1014.1
20260508070018 49 0.0 0.0 0.00 0.00 0.00 57 1014.0
20260508065038 49 0.0 0.0 0.00 0.00 0.00 57 1014.0
20260508064018 50 0.0 0.0 0.00 0.00 0.00 57 1013.8
20260508063018 50 0.0 0.0 0.00 0.00 0.00 58 1013.9
20260508062038 51 0.0 0.0 0.00 0.00 0.00 58 1013.8
20260508061058 51 0.0 0.0 0.00 0.00 0.00 59 1013.9
20260508060018 51 0.0 0.0 0.00 0.00 0.00 59 1013.9
20260508055018 52 0.0 0.0 0.00 0.00 0.00 59 1013.9
20260508054018 52 0.0 0.0 0.00 0.00 0.00 59 1014.0
20260508053018 52 0.0 0.0 0.00 0.00 0.00 61 1014.0
20260508052020 52 0.0 0.0 0.00 0.00 0.00 60 1014.0
20260508051020 52 0.0 0.0 0.00 0.00 0.00 59 1013.9
20260508050018 52 0.0 0.0 0.00 0.00 0.00 60 1013.8
20260508045020 53 0.0 0.0 0.00 0.00 0.00 60 1013.7
20260508044020 53 0.0 0.0 0.00 0.00 0.00 61 1013.7
20260508043018 53 0.0 0.0 0.00 0.00 0.00 62 1013.5
20260508042018 53 0.0 0.0 0.00 0.00 0.00 66 1013.5
20260508041020 53 0.0 0.0 0.00 0.00 0.00 67 1013.4
20260508040039 54 0.0 0.0 0.00 0.00 1.43 68 1013.3
20260508035018 54 0.0 0.0 0.00 0.00 1.43 70 1013.2
20260508034018 55 0.0 0.0 0.00 0.00 1.43 73 1013.2
20260508033040 55 0.0 0.0 0.00 0.00 1.43 75 1013.3
20260508032018 55 0.0 0.0 0.00 0.00 1.43 76 1013.2
20260508031018 55 0.0 0.0 0.00 0.00 1.43 75 1013.3
20260508030020 56 0.0 0.0 0.00 0.00 1.43 76 1013.0
20260508025020 57 0.0 0.0 0.00 0.00 1.43 78 1012.9
20260508024018 58 0.0 0.0 0.00 0.00 1.43 78 1012.9
20260508023018 59 0.0 0.0 0.00 0.00 1.43 77 1012.9
20260508022020 59 0.0 0.0 0.00 0.00 1.43 77 1012.7
20260508021019 59 0.0 0.0 0.00 0.00 1.43 76 1012.6
20260508020018 59 0.0 0.0 0.00 0.00 1.43 76 1012.6
20260508015038 60 0.0 0.0 0.00 0.00 1.43 76 1012.5
20260508014018 60 0.0 0.0 0.00 0.00 1.43 76 1012.3
20260508013020 61 0.0 0.0 0.00 0.00 1.43 75 1012.0
20260508012020 61 0.0 0.0 0.00 0.00 1.43 75 1011.8
20260508011100 62 0.0 0.0 0.00 0.00 1.43 74 1011.7
20260508010020 63 0.0 0.0 0.00 0.00 1.43 73 1011.6
20260508005040 63 0.0 0.0 0.00 0.00 1.43 73 1011.2
20260508004019 64 0.0 2.0 0.00 0.00 1.43 72 1011.2
20260508003020 64 0.0 0.0 0.00 0.00 1.43 70
20260508002020 65 0.0 4.0 0.00 0.00 1.43 70
20260508001020 66 0.0 4.0 0.00 0.00 1.43 69
20260508000020 66 0.0 2.0 0.00 0.00 1.43 67
20260507235020 67 0.0 2.0 0.00 0.00 1.43 66
20260507234020 68 315 1.0 3.0 0.00 0.00 1.43 65
20260507233020 68 315 2.0 6.0 0.00 0.00 1.43 63
20260507232019 69 315 1.0 6.0 0.00 0.00 1.43 62
20260507231020 70 293 1.0 6.0 0.00 0.00 1.43 61
20260507230020 71 315 1.0 6.0 0.00 0.00 1.43 63